Location: Muenchen
(48.1800°N, 11.5800°E)
Time: 08:54:20
(UTC+02:00)

Tiros 1 - Visible Passes

Search period start: 30 June 2016 00:00
Search period end: 10 July 2016 00:00
Orbit: 631 x 665 km, 48.4° (Epoch: 29 June)

Date Brightness Start Highest point End Pass type
(mag) Time Alt. Az. Time Alt. Az. Time Alt. Az.
01 Jul 9.4 04:18:43 10° SSE 04:20:58 13° SE 04:23:14 10° ESE visible
03 Jul 9.4 03:29:31 10° SSE 03:31:30 12° SE 03:33:29 10° ESE visible
04 Jul 8.6 03:54:03 12° SSW 03:57:21 24° SE 04:01:09 10° E visible
05 Jul 9.3 02:41:21 11° SE 02:42:02 12° SE 02:43:40 10° ESE visible
05 Jul 7.9 04:19:00 11° SW 04:23:22 42° SSE 04:27:50 10° E visible
06 Jul 8.6 03:06:15 19° S 03:07:52 23° SE 03:11:35 10° E visible
07 Jul 9.5 01:53:27 10° ESE 01:53:27 10° ESE 01:53:44 10° ESE visible
07 Jul 7.8 03:31:07 20° SSW 03:33:52 40° SSE 03:38:18 10° E visible
08 Jul 8.6 02:18:16 22° SE 02:18:22 22° SE 02:22:00 10° E visible
08 Jul 7.3 03:55:55 13° WSW 04:00:02 63° SSE 04:04:45 10° E visible
09 Jul 7.8 02:43:01 31° S 02:44:22 38° SSE 02:48:46 10° E visible
09 Jul 7.2 04:21:33 10° WSW 04:26:21 84° SSE 04:31:07 10° E visible
